Wind_Speed
12 10 8 5 2 2 1 1 4 6 8 10 14 16 17 19 16 11 10 9 10 10 11 11 12 11 13 16 20 22 20 19 9 18 33 18 22 20 20 13 15 19 21
11 8 6 6 4 2 1 2 5 8 10 13 15 16 17 17 20 17 12 9 9 11 12 13 17 20 16 14 14 18 20 15 11 13 22 35 25 22 17 18 18 20 22
12 11 8 6 4 2 1 3 5 8 11 13 14 16 18 19 18 18 16 16 13 14 15 15 14 14 19 21 21 18 15 13 15 15 18 24 26 28 22 19 18 21 24
11 8 7 3 3 5 6 6 8 10 12 13 14 16 18 19 16 13 16 18 19 20 16 13 14 15 16 15 14 17 13 14 13 13 16 18 20 23 22 19 21 20 25
10 8 7 5 7 7 9 11 11 12 12 12 15 17 18 19 11 17 16 16 18 18 18 19 19 14 16 18 17 16 15 16 16 15 17 17 17 17 17 20 16 17 23
10 8 7 7 7 10 11 12 13 13 13 12 15 16 17 18 18 17 18 18 20 19 18 18 19 20 21 19 14 16 19 20 19 18 19 17 20 21 20 19 18 12 4
10 8 7 8 10 11 13 13 12 12 12 14 16 17 18 18 17 18 19 19 20 20 20 18 21 20 21 18 17 16 17 17 20 24 22 21 22 18 15 11 15 13 10
7 7 8 9 10 11 11 10 12 15 16 17 19 20 20 21 20 19 21 20 21 22 19 21 22 22 18 16 15 18 19 19 19 18 18 25 22 18 13 11 11 12 13
7 6 8 8 10 12 11 12 14 15 17 19 20 21 21 21 22 23 20 21 22 24 24 19 21 23 18 13 13 17 20 20 19 18 20 20 21 20 14 10 13 10 6
4 6 8 8 9 11 11 13 15 16 19 19 20 20 21 20 20 18 15 18 23 24 23 22 22 14 7 11 12 13 17 19 19 17 14 15 14 17 20 19 16 15 12
4 4 3 6 8 10 11 13 15 16 16 16 17 17 17 13 11 11 14 16 18 21 23 23 21 11 19 22 22 18 18 22 22 19 16 17 14 14 13 15 16 18 17
2 4 6 8 9 10 12 12 12 12 15 14 14 17 16 16 11 21 23 24 25 21 23 25 27 33 34 31 28 25 26 25 20 21 20 17 17 16 15 20 19 18 18
5 6 7 8 10 10 11 10 12 12 14 14 16 15 16 17 19 26 28 30 27 26 24 29 31 30 30 28 27 28 23 18 21 22 21 24 22 20 18 13 11 16 18
6 8 8 8 10 10 10 10 11 13 15 15 15 16 18 19 18 25 29 29 27 25 26 29 34 33 29 31 32 31 23 22 23 24 23 26 25 14 17 17 20 19 19
7 7 7 6 8 8 7 7 7 7 11 11 12 14 16 19 20 29 29 28 27 28 33 27 26 23 21 19 22 18 13 15 15 17 20 25 25 22 13 15 16 18 17
5 6 6 6 7 8 9 9 1 5 9 7 6 9 13 12 22 27 25 30 28 28 19 20 23 22 21 20 21 17 19 17 14 14 18 20 18 19 20 21 20 21 17
7 5 5 6 8 8 9 10 12 3 7 5 6 6 10 17 28 22 26 30 20 22 19 20 23 24 25 25 26 24 18 21 23 17 16 20 20 17 15 17 20 22 21
3 4 5 5 7 8 9 9 9 9 12 12 2 9 20 28 21 23 26 24 24 23 22 21 21 23 23 24 25 25 26 22 19 20 21 19 21 22 21 22 18 19 21
6 6 5 6 6 6 8 7 8 8 9 10 11 14 22 23 22 25 24 21 21 22 22 22 22 22 24 24 24 25 24 24 24 22 21 19 18 20 22 25 26 22 21
3 9 6 6 7 7 7 7 7 9 10 11 13 12 19 20 22 23 24 21 21 22 23 23 23 22 23 24 24 24 25 23 19 19 20 20 19 20 22 26 28 28 18
2 2 3 5 5 7 8 9 9 11 12 14 15 9 9 14 16 17 18 19 20 22 23 24 26 25 25 25 25 24 23 23 22 23 24 19 20 22 23 23 23 24 23
1 2 3 5 6 7 10 10 11 12 14 15 18 16 13 16 19 20 15 16 19 21 22 24 26 26 26 26 26 25 24 23 23 24 25 22 21 24 21 19 22 21 19
2 5 6 7 7 7 10 10 12 13 15 16 17 18 19 20 21 20 21 16 16 20 27 29 26 28 28 28 27 26 25 24 24 25 26 26 21 20 19 19 20 21 20
6 6 7 8 7 10 10 12 13 11 13 16 18 19 20 22 22 22 21 21 16 19 24 30 31 30 31 31 30 25 25 25 28 33 30 30 30 27 24 23 22 21 22
9 8 8 9 9 10 11 12 13 14 15 17 19 21 22 23 24 24 23 23 20 21 29 28 30 34 35 36 33 31 32 36 34 32 29 28 31 30 29 27 27 25 25
10 9 10 10 10 11 12 13 14 15 18 19 20 21 23 25 25 25 26 24 23 27 21 22 30 32 34 37 36 36 38 39 36 27 23 27 27 28 28 29 28 26 26
Wind_Direction
167 166 165 170 174 198 219 42 4 357 353 356 355 353 353 350 350 334 312 309 300 286 280 281 282 288 292 281 282 272 258 249 241 267 273 284 253 224 245 243 248 246 251
155 166 172 175 179 155 192 2 1 0 355 350 351 350 348 344 340 346 339 306 282 289 290 276 272 271 281 283 274 282 270 260 238 264 276 287 299 284 251 254 253 254 249
160 170 171 181 198 227 281 323 330 333 336 343 346 347 343 339 333 330 351 347 324 298 287 282 277 276 277 276 273 265 264 268 261 251 271 281 284 284 279 271 260 253 269
185 159 171 197 246 305 336 314 322 328 321 335 338 342 343 337 329 353 338 330 323 320 319 312 295 278 268 270 268 262 263 266 267 268 272 276 278 278 280 275 274 250 256
183 182 198 236 266 294 308 302 306 312 315 325 331 336 339 332 6 349 344 331 324 315 310 308 305 313 295 280 268 270 268 265 264 274 278 275 272 275 262 267 279 270 260
188 196 222 244 283 284 300 297 300 307 304 322 319 325 326 326 331 334 336 332 325 317 319 316 307 296 281 277 283 276 272 269 256 246 255 257 270 273 269 257 266 275 281
195 216 240 263 280 294 302 304 305 305 314 312 314 318 318 322 319 326 327 324 317 322 310 318 312 305 316 304 300 287 278 274 269 264 253 249 261 272 268 257 250 248 249
203 238 262 277 290 301 310 321 321 321 320 319 316 314 313 316 320 318 319 319 315 306 317 310 305 312 308 317 296 289 286 282 272 269 256 258 258 265 256 258 258 255 272
200 250 315 330 343 338 335 329 327 323 317 318 317 324 323 319 317 314 313 317 315 316 307 309 308 302 300 299 317 297 288 282 278 265 267 271 264 267 255 256 246 237 253
61 59 20 353 332 327 328 324 322 320 317 322 319 318 316 318 313 315 328 322 319 314 313 315 311 312 334 342 334 316 307 293 296 305 288 278 276 263 257 247 248 240 236
36 40 8 338 331 327 328 326 324 324 322 322 320 320 306 315 5 21 15 359 343 325 314 309 304 306 329 327 320 306 293 293 300 287 274 271 255 255 251 243 236 237 240
11 10 351 340 339 336 331 331 329 325 320 327 333 331 340 352 21 8 355 348 345 335 313 309 311 312 318 316 312 300 292 287 282 274 262 254 271 273 257 241 239 239 243
14 9 357 350 356 351 343 339 336 347 346 345 341 344 343 340 337 339 346 338 334 329 312 309 313 312 306 298 293 291 286 267 268 265 267 270 247 242 244 264 238 245 252
26 23 12 359 2 4 355 358 356 5 0 348 350 345 343 342 343 341 331 325 320 317 312 309 304 300 294 285 275 271 272 280 270 263 257 263 271 254 223 239 247 247 252
41 24 13 3 8 359 4 352 2 23 358 351 350 342 336 332 330 331 332 329 321 312 309 304 302 296 298 313 317 306 304 316 318 298 294 293 294 302 269 245 252 246 239
41 27 34 350 357 359 355 3 324 36 13 5 1 2 354 336 326 335 335 336 335 339 318 303 307 310 310 329 308 306 313 298 298 308 303 291 286 284 283 281 269 265 260
58 10 8 357 2 356 3 9 359 340 331 326 21 22 356 346 344 346 346 342 341 354 351 343 340 339 338 335 333 321 305 305 313 297 300 299 292 287 272 278 273 279 255
65 40 354 3 11 2 12 5 358 3 2 16 70 35 1 351 360 355 350 349 350 347 345 342 336 332 326 321 322 325 330 327 320 316 304 295 291 290 284 290 275 270 270
39 22 358 7 20 355 357 348 355 349 356 4 7 12 6 2 9 4 358 354 344 338 334 327 324 322 321 319 318 315 313 309 309 305 304 304 309 313 306 298 278 264 267
84 38 19 351 354 348 338 331 334 338 344 349 346 351 355 360 3 3 3 356 344 333 325 321 319 316 314 312 313 313 312 315 309 305 305 307 303 302 304 299 294 279 258
43 58 1 312 341 341 333 324 329 325 334 335 331 334 341 347 348 353 357 352 344 339 331 324 319 317 316 314 311 310 306 305 300 292 288 284 288 292 293 293 302 315 278
327 356 347 335 335 343 337 313 323 323 327 331 327 332 319 319 339 337 338 338 337 337 337 338 330 325 323 321 318 313 307 302 303 302 299 293 289 287 284 287 291 297 301
312 327 326 327 325 329 315 318 330 321 324 324 324 330 331 332 332 333 333 324 323 327 349 348 336 335 338 333 328 320 310 304 303 304 299 292 288 287 288 287 285 282 285
294 308 320 322 332 322 309 334 311 319 319 323 325 327 329 327 329 331 330 330 318 319 329 336 343 339 335 334 334 328 322 316 308 301 291 282 279 277 275 271 267 269 268
290 307 319 325 327 325 327 322 326 326 324 324 327 331 325 327 329 326 329 328 321 316 324 326 333 340 341 341 339 337 329 329 325 317 301 281 265 265 261 259 260 265 266
308 322 316 313 322 326 324 323 321 323 326 333 326 323 330 327 324 329 325 325 327 315 314 310 320 324 334 337 340 340 341 339 334 330 307 289 270 259 253 251 252 252 256
Height
795 797 799 799 800 800 800 800 800 798 797 795 792 789 786 781 778 776 775 773 772 771 770 771 770 769 769 770 769 768 768 769 769 767 765 761 759 755 754 757 760 763 762
795 798 800 799 800 800 799 800 799 799 797 794 792 789 787 783 779 776 773 773 772 770 769 768 768 767 765 765 764 764 762 764 766 765 762 759 759 751 747 757 756 756 757
796 797 800 801 801 800 799 800 799 798 796 794 792 789 786 783 780 776 774 772 770 768 767 766 764 764 762 762 761 761 760 760 762 762 759 758 755 756 755 751 753 752 754
796 797 800 802 802 801 800 800 798 797 795 793 792 789 786 783 779 777 776 773 770 767 765 763 761 761 760 759 757 756 757 757 759 759 757 754 753 750 750 750 750 750 749
797 798 801 803 803 802 801 800 798 797 794 793 791 789 786 783 780 778 776 774 771 767 764 762 759 757 757 756 755 752 753 753 754 754 752 751 747 746 746 746 747 746 745
798 800 802 803 804 803 801 800 798 796 794 792 790 789 786 784 780 778 775 773 770 766 762 759 757 755 751 750 750 749 748 748 747 747 747 745 740 741 741 741 742 743 742
798 800 802 803 802 801 800 798 797 795 792 790 788 787 784 782 778 777 775 773 769 765 762 758 754 750 748 747 746 745 744 743 742 742 741 737 737 736 738 735 736 738 738
798 801 802 800 800 799 797 795 795 793 791 789 787 785 782 780 776 775 773 771 767 762 759 757 753 749 745 743 743 741 739 738 737 735 734 732 733 732 733 732 733 733 732
794 798 801 801 798 797 796 795 794 792 790 787 785 782 780 778 776 772 770 769 764 760 756 753 750 747 743 741 740 739 736 733 730 729 729 728 728 727 727 729 729 731 730
794 795 799 801 800 799 797 796 795 792 790 787 785 783 780 777 774 770 768 766 763 759 754 750 747 743 742 741 741 739 735 731 729 726 727 725 723 721 722 722 724 724 725
798 797 798 800 798 797 797 796 795 792 790 787 785 782 778 775 773 770 768 768 765 762 755 750 745 741 740 740 738 736 733 731 727 725 722 720 719 719 718 716 717 718 719
801 799 798 799 797 796 797 795 793 790 787 785 782 780 777 776 773 772 769 769 766 763 758 751 745 738 735 733 731 729 727 725 723 719 714 713 714 713 712 711 710 711 712
799 798 799 799 798 797 795 795 791 789 788 787 784 782 780 779 775 772 770 767 764 760 756 751 745 739 734 730 726 723 721 720 717 713 709 707 704 705 706 706 706 708 709
799 798 799 799 799 796 794 795 794 792 794 791 789 787 784 782 780 780 775 768 762 756 753 747 741 733 727 721 718 715 716 715 710 707 704 702 699 698 699 701 702 703 704
797 799 800 798 798 796 796 796 796 796 798 797 795 792 788 787 785 782 775 767 760 753 747 741 734 726 720 717 714 713 711 709 707 705 703 700 697 695 693 695 696 697 695
797 797 800 799 798 797 796 794 793 793 794 794 793 791 789 787 784 777 772 763 755 749 741 737 730 724 721 717 715 712 709 707 705 704 702 698 696 694 692 691 690 690 691
800 801 800 799 798 798 795 793 791 792 791 791 789 788 788 786 780 774 767 758 751 748 744 740 736 731 727 722 718 711 708 706 703 700 699 697 693 690 688 688 687 684 681
800 800 799 799 799 798 795 794 794 793 791 789 790 790 787 782 777 771 765 758 753 749 746 743 739 735 732 727 722 717 712 707 703 700 696 693 690 687 684 682 679 680 680
801 801 800 798 798 798 796 795 794 794 792 789 787 786 784 779 775 770 766 762 758 753 749 745 741 736 731 726 721 716 712 707 703 700 697 693 690 687 683 679 675 671 673
801 802 801 799 798 797 796 795 794 791 788 785 782 780 780 776 772 769 766 763 759 754 749 744 739 734 729 724 719 714 709 704 700 697 694 692 689 687 684 680 675 666 665
799 800 802 799 798 798 797 794 791 788 784 782 779 777 776 773 768 765 765 762 758 753 748 742 736 731 725 720 715 710 706 702 698 695 691 688 686 683 680 676 673 667 662
799 798 799 797 797 795 795 792 788 785 782 780 776 772 769 766 762 760 759 760 757 751 746 740 733 728 722 716 711 706 701 697 694 690 687 683 680 677 673 671 668 664 660
797 796 794 793 792 792 789 787 786 783 781 778 774 770 766 762 759 757 755 753 752 748 743 737 731 725 719 713 708 702 697 693 689 686 681 677 673 670 667 665 663 660 656
795 792 790 789 787 788 785 785 782 780 779 775 771 767 764 761 757 754 751 748 746 744 739 733 728 722 716 709 703 698 693 689 685 680 675 670 665 662 661 658 655 653 650
791 789 787 785 785 784 783 781 779 777 775 771 768 766 762 758 755 751 746 744 741 739 733 728 722 717 711 705 698 692 687 681 675 669 663 658 654 652 651 649 647 644 642
788 786 785 783 782 782 781 779 777 774 771 768 766 762 759 755 751 746 743 739 736 732 727 724 718 713 707 700 694 688 681 673 665 659 653 646 642 639 638 636 635 635 633